GLD1793 SBNF-SBGL

Flight info

Callsign GLD1793
Flight time 1h 3m
Altitude 39000
Route OGPE1B KUBLO UM540 ANISE DCT DORLU UZ42 VUREP PABE1B
Aircraft B738/M-SDFGIRY/S

Departure

Time 2026-04-25 14:57
Airport Ministro Victor Konder International Airport (SBNF)

Arrival

Time 2026-04-25 16:00
Airport Rio Galeão – Tom Jobim International Airport (SBGL)
Time Latitude Longitude Altitude Speed Heading
2026-04-25 14:46 -26.88015 -48.64962 20 ft 0 kts 123°
2026-04-25 14:49 -26.88008 -48.64975 20 ft 2 kts 119°
2026-04-25 14:49 -26.88001 -48.64992 22 ft 2 kts 91°
2026-04-25 14:49 -26.88005 -48.65009 20 ft 1 kts 59°
2026-04-25 14:50 -26.88007 -48.65013 20 ft 0 kts 59°
2026-04-25 14:54 -26.87999 -48.64998 21 ft 5 kts 55°
2026-04-25 14:54 -26.87963 -48.64981 20 ft 7 kts 358°
2026-04-25 14:54 -26.87905 -48.64996 21 ft 10 kts
2026-04-25 14:54 -26.87849 -48.64947 21 ft 11 kts 51°
2026-04-25 14:55 -26.87796 -48.64864 21 ft 16 kts 56°
2026-04-25 14:55 -26.87734 -48.64763 23 ft 15 kts 55°
2026-04-25 14:55 -26.87676 -48.64664 25 ft 15 kts 56°
2026-04-25 14:55 -26.87613 -48.64562 22 ft 17 kts 55°
2026-04-25 14:56 -26.87534 -48.64457 23 ft 15 kts 28°
2026-04-25 14:56 -26.87511 -48.64397 22 ft 4 kts 134°
2026-04-25 14:56 -26.87530 -48.64408 22 ft 4 kts 252°
2026-04-25 14:56 -26.87540 -48.64441 23 ft 15 kts 243°
2026-04-25 14:57 -26.87817 -48.64897 21 ft 124 kts 236°
2026-04-25 14:57 -26.88475 -48.65953 267 ft 193 kts 237°
2026-04-25 14:57 -26.89251 -48.67239 1360 ft 202 kts 236°
2026-04-25 14:57 -26.90009 -48.68390 3186 ft 156 kts 235°
2026-04-25 14:58 -26.90595 -48.69257 4748 ft 131 kts 240°
2026-04-25 14:58 -26.91132 -48.70180 5350 ft 158 kts 242°
2026-04-25 14:58 -26.91944 -48.71223 5654 ft 202 kts 215°
2026-04-25 14:58 -26.93451 -48.71495 5886 ft 246 kts 174°
2026-04-25 14:59 -26.95004 -48.70508 6376 ft 272 kts 136°
2026-04-25 14:59 -26.96107 -48.68754 7024 ft 278 kts 126°
2026-04-25 14:59 -26.97202 -48.66948 7718 ft 282 kts 128°
2026-04-25 14:59 -26.98335 -48.65143 8415 ft 288 kts 126°
2026-04-25 15:00 -26.98931 -48.63772 8702 ft 305 kts 107°
2026-04-25 15:00 -26.98870 -48.60583 8927 ft 313 kts 66°
2026-04-25 15:00 -26.97674 -48.58595 8965 ft 307 kts 46°
2026-04-25 15:00 -26.96307 -48.56789 8952 ft 308 kts 48°
2026-04-25 15:01 -26.94958 -48.54917 8947 ft 308 kts 49°
2026-04-25 15:01 -26.93626 -48.53029 8943 ft 309 kts 49°
2026-04-25 15:01 -26.92306 -48.51130 8947 ft 309 kts 50°
2026-04-25 15:01 -26.91023 -48.49197 8944 ft 309 kts 51°
2026-04-25 15:02 -26.89755 -48.47253 8941 ft 308 kts 51°
2026-04-25 15:02 -26.88523 -48.45360 8948 ft 308 kts 51°
2026-04-25 15:02 -26.87258 -48.43421 8941 ft 308 kts 51°
2026-04-25 15:02 -26.86010 -48.41512 8947 ft 308 kts 51°
2026-04-25 15:03 -26.84744 -48.39580 8952 ft 308 kts 51°
2026-04-25 15:03 -26.83315 -48.37793 9186 ft 310 kts 39°
2026-04-25 15:03 -26.81651 -48.36228 10170 ft 313 kts 36°
2026-04-25 15:03 -26.79904 -48.34673 10790 ft 332 kts 35°
2026-04-25 15:04 -26.78008 -48.32995 10975 ft 361 kts 36°
2026-04-25 15:04 -26.75974 -48.31173 11258 ft 385 kts 36°
2026-04-25 15:04 -26.73858 -48.29250 11833 ft 395 kts 37°
2026-04-25 15:04 -26.71717 -48.27282 12576 ft 399 kts 37°
2026-04-25 15:05 -26.69566 -48.25292 13340 ft 404 kts 37°
2026-04-25 15:05 -26.67418 -48.23300 14008 ft 409 kts 37°
2026-04-25 15:05 -26.65211 -48.21252 14645 ft 414 kts 37°
2026-04-25 15:06 -26.60736 -48.17101 15933 ft 422 kts 36°
2026-04-25 15:06 -26.58469 -48.15000 16560 ft 426 kts 36°
2026-04-25 15:06 -26.56171 -48.12872 17176 ft 430 kts 36°
2026-04-25 15:06 -26.53858 -48.10732 17760 ft 435 kts 36°
2026-04-25 15:07 -26.51512 -48.08563 18321 ft 439 kts 36°
2026-04-25 15:07 -26.49149 -48.06379 18787 ft 444 kts 36°
2026-04-25 15:07 -26.46756 -48.04168 19235 ft 448 kts 35°
2026-04-25 15:07 -26.44339 -48.01937 19670 ft 453 kts 35°
2026-04-25 15:08 -26.41932 -47.99715 20096 ft 457 kts 35°
2026-04-25 15:08 -26.39468 -47.97440 20533 ft 461 kts 34°
2026-04-25 15:08 -26.36987 -47.95153 20935 ft 465 kts 34°
2026-04-25 15:08 -26.34478 -47.92843 21317 ft 470 kts 34°
2026-04-25 15:09 -26.31906 -47.90581 21678 ft 472 kts 31°
2026-04-25 15:09 -26.29249 -47.88414 22084 ft 473 kts 30°
2026-04-25 15:09 -26.23833 -47.84169 22814 ft 479 kts 29°
2026-04-25 15:10 -26.21092 -47.82030 23167 ft 483 kts 29°
2026-04-25 15:10 -26.18341 -47.79869 23496 ft 486 kts 29°
2026-04-25 15:10 -26.12790 -47.75474 24078 ft 491 kts 30°
2026-04-25 15:11 -26.10007 -47.73260 24398 ft 492 kts 30°
2026-04-25 15:11 -26.07213 -47.71037 24692 ft 494 kts 30°
2026-04-25 15:11 -26.04413 -47.68809 24988 ft 496 kts 30°
2026-04-25 15:12 -25.98809 -47.64357 25541 ft 499 kts 30°
2026-04-25 15:12 -25.95972 -47.62107 25838 ft 501 kts 30°
2026-04-25 15:12 -25.93130 -47.59854 26114 ft 503 kts 30°
2026-04-25 15:12 -25.92167 -47.59091 26206 ft 503 kts 30°
2026-04-25 15:13 -25.87415 -47.55328 26650 ft 506 kts 30°
2026-04-25 15:13 -25.81658 -47.50776 27169 ft 510 kts 30°
2026-04-25 15:13 -25.78762 -47.48488 27430 ft 512 kts 30°
2026-04-25 15:14 -25.75853 -47.46190 27676 ft 513 kts 30°
2026-04-25 15:14 -25.72936 -47.43888 27921 ft 515 kts 30°
2026-04-25 15:14 -25.70006 -47.41577 28157 ft 517 kts 30°
2026-04-25 15:14 -25.67069 -47.39262 28386 ft 518 kts 30°
2026-04-25 15:15 -25.64131 -47.36947 28643 ft 519 kts 30°
2026-04-25 15:15 -25.61221 -47.34655 28916 ft 520 kts 30°
2026-04-25 15:15 -25.58274 -47.32336 29261 ft 519 kts 30°
2026-04-25 15:15 -25.55334 -47.30023 29644 ft 518 kts 30°
2026-04-25 15:16 -25.52395 -47.27713 30024 ft 517 kts 30°
2026-04-25 15:16 -25.49482 -47.25424 30343 ft 516 kts 30°
2026-04-25 15:16 -25.44619 -47.21608 30911 ft 514 kts 30°
2026-04-25 15:17 -25.38800 -47.17047 31641 ft 511 kts 30°
2026-04-25 15:17 -25.35908 -47.14782 31963 ft 510 kts 30°
2026-04-25 15:17 -25.33009 -47.12514 32337 ft 508 kts 30°
2026-04-25 15:18 -25.30125 -47.10257 32737 ft 507 kts 30°
2026-04-25 15:18 -25.24381 -47.05768 33431 ft 506 kts 30°
2026-04-25 15:18 -25.21513 -47.03529 33779 ft 505 kts 30°
2026-04-25 15:19 -25.18645 -47.01290 34139 ft 503 kts 30°
2026-04-25 15:19 -25.16749 -46.99810 34353 ft 503 kts 30°
2026-04-25 15:19 -25.12896 -46.96885 34722 ft 501 kts 27°
2026-04-25 15:19 -25.09937 -46.94869 34977 ft 500 kts 25°
2026-04-25 15:20 -25.06938 -46.92923 35266 ft 499 kts 25°
2026-04-25 15:20 -25.03973 -46.91029 35539 ft 498 kts 25°
2026-04-25 15:20 -25.00968 -46.89106 35842 ft 498 kts 25°
2026-04-25 15:20 -24.97981 -46.87179 36117 ft 498 kts 25°
2026-04-25 15:21 -24.94980 -46.85227 36379 ft 498 kts 25°
2026-04-25 15:21 -24.91998 -46.83277 36659 ft 498 kts 25°
2026-04-25 15:21 -24.89021 -46.81326 36940 ft 498 kts 25°
2026-04-25 15:21 -24.86028 -46.79365 36949 ft 502 kts 25°
2026-04-25 15:22 -24.80007 -46.75425 36961 ft 502 kts 25°
2026-04-25 15:22 -24.74042 -46.71524 36942 ft 496 kts 26°
2026-04-25 15:23 -24.68156 -46.67684 36957 ft 493 kts 26°
2026-04-25 15:23 -24.62259 -46.63841 36962 ft 492 kts 26°
2026-04-25 15:24 -24.56833 -46.59192 36973 ft 499 kts 40°
2026-04-25 15:24 -24.52662 -46.54716 36955 ft 501 kts 41°
2026-04-25 15:25 -24.46867 -46.48456 36963 ft 502 kts 40°
2026-04-25 15:25 -24.41841 -46.43118 36945 ft 504 kts 40°
2026-04-25 15:26 -24.36826 -46.37838 36962 ft 505 kts 40°
2026-04-25 15:26 -24.31747 -46.32503 36958 ft 506 kts 40°
2026-04-25 15:27 -24.26665 -46.27167 36955 ft 506 kts 40°
2026-04-25 15:28 -24.19036 -46.19164 36951 ft 506 kts 40°
2026-04-25 15:28 -24.13946 -46.13832 36947 ft 506 kts 40°
2026-04-25 15:29 -24.08859 -46.08509 36949 ft 505 kts 40°
2026-04-25 15:29 -24.03810 -46.03233 36943 ft 504 kts 40°
2026-04-25 15:29 -24.01269 -46.00578 36927 ft 492 kts 40°
2026-04-25 15:30 -23.98861 -45.98059 36939 ft 479 kts 40°
2026-04-25 15:30 -23.94066 -45.93059 36966 ft 475 kts 40°
2026-04-25 15:31 -23.89278 -45.88078 36976 ft 475 kts 40°
2026-04-25 15:31 -23.84481 -45.83090 36972 ft 474 kts 40°
2026-04-25 15:32 -23.79698 -45.78118 36993 ft 474 kts 40°
2026-04-25 15:32 -23.74914 -45.73152 36983 ft 475 kts 40°
2026-04-25 15:33 -23.67735 -45.65709 36483 ft 480 kts 41°
2026-04-25 15:33 -23.65292 -45.63178 35997 ft 476 kts 40°
2026-04-25 15:33 -23.62927 -45.60728 35588 ft 472 kts 40°
2026-04-25 15:34 -23.60557 -45.58273 35184 ft 468 kts 40°
2026-04-25 15:34 -23.58203 -45.55838 34791 ft 464 kts 40°
2026-04-25 15:34 -23.55864 -45.53421 34390 ft 461 kts 40°
2026-04-25 15:34 -23.54326 -45.51832 34117 ft 459 kts 40°
2026-04-25 15:35 -23.48934 -45.46265 33103 ft 452 kts 40°
2026-04-25 15:35 -23.46656 -45.43915 32694 ft 449 kts 40°
2026-04-25 15:35 -23.44420 -45.41610 32302 ft 446 kts 40°
2026-04-25 15:36 -23.39943 -45.36996 31519 ft 440 kts 40°
2026-04-25 15:36 -23.37728 -45.34704 31132 ft 439 kts 42°
2026-04-25 15:36 -23.35792 -45.32137 30736 ft 441 kts 55°
2026-04-25 15:37 -23.34327 -45.29209 30340 ft 441 kts 66°
2026-04-25 15:37 -23.33367 -45.26045 29915 ft 440 kts 76°
2026-04-25 15:37 -23.32674 -45.22810 29504 ft 437 kts 77°
2026-04-25 15:37 -23.32020 -45.19591 29067 ft 434 kts 77°
2026-04-25 15:38 -23.31372 -45.16401 28671 ft 430 kts 77°
2026-04-25 15:38 -23.30718 -45.13240 28267 ft 427 kts 77°
2026-04-25 15:38 -23.30056 -45.10098 27861 ft 424 kts 77°
2026-04-25 15:38 -23.29392 -45.06991 27476 ft 421 kts 77°
2026-04-25 15:39 -23.28727 -45.03907 27091 ft 418 kts 77°
2026-04-25 15:39 -23.28062 -45.00836 26702 ft 415 kts 77°
2026-04-25 15:39 -23.27399 -44.97786 26327 ft 413 kts 77°
2026-04-25 15:39 -23.26739 -44.94746 25941 ft 412 kts 77°
2026-04-25 15:40 -23.26081 -44.91722 25551 ft 410 kts 77°
2026-04-25 15:40 -23.25869 -44.90743 25413 ft 410 kts 77°
2026-04-25 15:40 -23.24770 -44.85697 24755 ft 408 kts 77°
2026-04-25 15:40 -23.24119 -44.82709 24367 ft 406 kts 77°
2026-04-25 15:41 -23.23469 -44.79729 23993 ft 404 kts 77°
2026-04-25 15:41 -23.22821 -44.76761 23599 ft 403 kts 77°
2026-04-25 15:41 -23.22182 -44.73838 23153 ft 401 kts 77°
2026-04-25 15:41 -23.21538 -44.70894 22751 ft 398 kts 77°
2026-04-25 15:42 -23.20901 -44.67980 22350 ft 395 kts 77°
2026-04-25 15:42 -23.20267 -44.65086 21973 ft 391 kts 77°
2026-04-25 15:42 -23.19638 -44.62217 21586 ft 388 kts 77°
2026-04-25 15:42 -23.19036 -44.59371 21216 ft 385 kts 77°
2026-04-25 15:43 -23.18447 -44.56545 20833 ft 382 kts 76°
2026-04-25 15:43 -23.17626 -44.53811 20466 ft 379 kts 65°
2026-04-25 15:43 -23.16515 -44.51225 20096 ft 376 kts 63°
2026-04-25 15:43 -23.15381 -44.48704 19738 ft 373 kts 63°
2026-04-25 15:44 -23.14238 -44.46185 19369 ft 371 kts 62°
2026-04-25 15:44 -23.13104 -44.43676 19011 ft 368 kts 63°
2026-04-25 15:44 -23.11972 -44.41151 18644 ft 367 kts 63°
2026-04-25 15:44 -23.10862 -44.38660 18286 ft 365 kts 63°
2026-04-25 15:45 -23.09774 -44.36210 17885 ft 363 kts 63°
2026-04-25 15:45 -23.08684 -44.33751 17509 ft 360 kts 63°
2026-04-25 15:45 -23.07605 -44.31314 17145 ft 356 kts 63°
2026-04-25 15:45 -23.07242 -44.30495 17019 ft 355 kts 63°
2026-04-25 15:46 -23.05475 -44.26504 16447 ft 350 kts 63°
2026-04-25 15:46 -23.04424 -44.24134 16101 ft 347 kts 63°
2026-04-25 15:46 -23.03382 -44.21784 15760 ft 345 kts 63°
2026-04-25 15:46 -23.02345 -44.19446 15412 ft 342 kts 64°
2026-04-25 15:47 -23.01316 -44.17127 15077 ft 340 kts 64°
2026-04-25 15:47 -23.00295 -44.14827 14743 ft 337 kts 64°
2026-04-25 15:47 -22.99280 -44.12543 14387 ft 335 kts 64°
2026-04-25 15:47 -22.98270 -44.10271 14060 ft 333 kts 64°
2026-04-25 15:48 -22.97279 -44.08041 13701 ft 332 kts 64°
2026-04-25 15:48 -22.96281 -44.05795 13339 ft 329 kts 64°
2026-04-25 15:48 -22.95292 -44.03572 12995 ft 326 kts 64°
2026-04-25 15:48 -22.94310 -44.01366 12645 ft 324 kts 64°
2026-04-25 15:49 -22.93331 -43.99170 12321 ft 321 kts 64°
2026-04-25 15:49 -22.92363 -43.96998 11974 ft 319 kts 64°
2026-04-25 15:49 -22.91402 -43.94843 11651 ft 316 kts 64°
2026-04-25 15:49 -22.90446 -43.92698 11325 ft 314 kts 64°
2026-04-25 15:50 -22.89500 -43.90576 11005 ft 312 kts 64°
2026-04-25 15:50 -22.88558 -43.88464 10692 ft 310 kts 64°
2026-04-25 15:50 -22.87626 -43.86376 10474 ft 304 kts 64°
2026-04-25 15:50 -22.86715 -43.84334 10321 ft 296 kts 64°
2026-04-25 15:51 -22.85832 -43.82355 10202 ft 288 kts 64°
2026-04-25 15:51 -22.85550 -43.81725 10158 ft 285 kts 64°
2026-04-25 15:51 -22.84131 -43.78546 9919 ft 275 kts 64°
2026-04-25 15:51 -22.83298 -43.76684 9647 ft 274 kts 64°
2026-04-25 15:52 -22.82468 -43.74829 9385 ft 273 kts 64°
2026-04-25 15:52 -22.81653 -43.73007 9119 ft 272 kts 64°
2026-04-25 15:52 -22.80879 -43.71138 8827 ft 272 kts 72°
2026-04-25 15:52 -22.80397 -43.69147 8510 ft 273 kts 78°
2026-04-25 15:53 -22.79974 -43.67136 8181 ft 274 kts 77°
2026-04-25 15:53 -22.79533 -43.65125 7864 ft 275 kts 77°
2026-04-25 15:53 -22.79075 -43.63103 7548 ft 277 kts 76°
2026-04-25 15:53 -22.78611 -43.61077 7210 ft 278 kts 76°
2026-04-25 15:54 -22.78138 -43.59041 6889 ft 279 kts 76°
2026-04-25 15:54 -22.77661 -43.57001 6556 ft 280 kts 76°
2026-04-25 15:54 -22.77152 -43.54958 6160 ft 281 kts 71°
2026-04-25 15:54 -22.76412 -43.53014 5774 ft 276 kts 65°
2026-04-25 15:55 -22.75615 -43.51129 5211 ft 278 kts 65°
2026-04-25 15:55 -22.74812 -43.49215 4496 ft 286 kts 65°
2026-04-25 15:55 -22.73995 -43.47214 3998 ft 284 kts 65°
2026-04-25 15:55 -22.73218 -43.45284 3712 ft 273 kts 65°
2026-04-25 15:56 -22.72478 -43.43438 3457 ft 262 kts 65°
2026-04-25 15:56 -22.71942 -43.41602 3256 ft 252 kts 87°
2026-04-25 15:56 -22.72348 -43.39851 3066 ft 242 kts 120°
2026-04-25 15:56 -22.73287 -43.38375 2738 ft 234 kts 126°
2026-04-25 15:57 -22.74220 -43.36967 2439 ft 226 kts 126°
2026-04-25 15:57 -22.75117 -43.35610 2132 ft 217 kts 127°
2026-04-25 15:57 -22.75980 -43.34309 1842 ft 209 kts 126°
2026-04-25 15:57 -22.76805 -43.33063 1583 ft 198 kts 126°
2026-04-25 15:58 -22.77586 -43.31886 1323 ft 186 kts 126°
2026-04-25 15:58 -22.78318 -43.30782 1121 ft 172 kts 127°
2026-04-25 15:58 -22.78995 -43.29762 911 ft 157 kts 127°
2026-04-25 15:58 -22.79610 -43.28835 669 ft 147 kts 125°
2026-04-25 15:59 -22.80208 -43.27932 460 ft 146 kts 124°
2026-04-25 15:59 -22.80790 -43.27053 220 ft 140 kts 124°
2026-04-25 15:59 -22.81338 -43.26218 43 ft 134 kts 124°
2026-04-25 15:59 -22.81812 -43.25501 26 ft 94 kts 125°
2026-04-25 16:00 -22.82120 -43.25040 24 ft 60 kts 126°
2026-04-25 16:00 -22.82196 -43.24926 21 ft 51 kts 126°
2026-04-25 16:00 -22.82338 -43.24680 18 ft 13 kts 107°
2026-04-25 16:00 -22.82355 -43.24586 19 ft 13 kts 97°
2026-04-25 16:01 -22.82365 -43.24493 18 ft 12 kts 95°
2026-04-25 16:01 -22.82325 -43.24418 17 ft 12 kts 39°
2026-04-25 16:01 -22.82259 -43.24365 19 ft 12 kts 36°
2026-04-25 16:01 -22.82196 -43.24314 20 ft 11 kts 36°
2026-04-25 16:02 -22.82133 -43.24265 20 ft 11 kts 36°
2026-04-25 16:02 -22.82071 -43.24217 20 ft 11 kts 35°
2026-04-25 16:02 -22.82010 -43.24171 22 ft 10 kts 34°
2026-04-25 16:02 -22.81952 -43.24127 21 ft 10 kts 36°
2026-04-25 16:03 -22.81895 -43.24082 21 ft 10 kts 35°
2026-04-25 16:03 -22.81859 -43.24054 21 ft 10 kts 35°
2026-04-25 16:03 -22.81842 -43.24041 22 ft 0 kts 35°